User: anonymous   Login
Location: Asheville, NC
(35.6000°N, 82.5500°W)
Time: 06:24:03
(UTC-04:00)
Language:

Oscar 11 - Orbit

View from above orbital plane
View from above orbital plane
View from above satellite
View from above satellite

Ground track
Ground track

The orbit data is extracted from the following two-line orbital elements,

1 14781U 84021B   18202.61331824 +.00000063 +00000-0 +13928-4 0  9993
2 14781 097.6466 237.3566 0007821 340.1540 019.9369 14.83018548828544
Epoch (UTC): 21 July 2018 14:43:10
Eccentricity: 0.0007821
inclination: 97.6466°
perigee height: 614 km
apogee height: 625 km
right ascension of ascending node: 237.3566°
argument of perigee: 340.1540°
revolutions per day: 14.83018548
mean anomaly at epoch: 19.9369°
orbit number at epoch: 82854

The dashed part of the orbit path shows where the satellite is in the earth's shadow,  

DLR